[[{"header":{"parameterUnit":"m.s-1","parameterCategory":1,"la1":30.2991,"la2":30.254,"lo1":-89.0895,"lo2":-89.0444,"dy":0.0017,"dx":0.0017,"nx":28,"ny":28,"refTime":"2024-04-07T09:00:00:Z","depth":0,"parameterNumber":2,"parameterNumberName":"U-component_of_WINDS"},"data":[0,0,0,0,0,0,0,0,0,0,0,0,0,0,0,0,0,0,0,0,0,0,0,0,0,0,0,0,0,0,0,0,0,0,0,0,0,0,0,0,0,0,0,0,0,0,0,0,0,0,0,0,0,0,0,0,0,0,-2.97,-2.9701,0,-2.9753,-2.9754,-2.9754,-2.975,-2.9749,-2.9749,-2.9748,-2.9801,-2.9803,-2.9806,0,0,0,0,0,0,0,0,0,0,0,0,0,-2.9595,-2.9597,-2.97,-2.9701,-2.9701,-2.9753,-2.9754,-2.9754,-2.975,-2.9749,-2.9748,-2.9747,-2.9801,-2.9803,-2.9806,0,0,0,0,0,0,0,0,0,0,0,0,0,-2.9644,-2.9598,-2.97,-2.9705,-2.9707,-2.9753,-2.9754,-2.9755,-2.9751,-2.9749,-2.9748,-2.9747,-2.98,-2.9803,-2.9806,-2.985,0,0,-2.9816,-2.9818,0,0,0,0,0,0,0,0,-2.9641,-2.9648,-2.9704,-2.9705,-2.9706,-2.9744,-2.9736,-2.9787,-2.9751,-2.9734,-2.9748,-2.9746,-2.9783,-2.9788,-2.98,-2.9853,-2.9855,-2.9816,-2.9818,-2.982,-2.9821,0,0,0,0,0,0,0,-2.9638,-2.9645,-2.9721,-2.9705,-2.9706,-2.9705,-2.9711,-2.9746,-2.9764,-2.9735,-2.9735,-2.9741,-2.9784,-2.9797,-2.9801,-2.9856,-2.9816,-2.9819,-2.9821,-2.9822,-2.9947,-2.9949,0,0,0,0,0,0,-2.9633,-2.9642,-2.9719,-2.9723,-2.967,-2.9708,-2.9715,-2.9733,-2.9764,-2.9768,-2.9742,-2.9741,-2.9792,-2.9798,-2.9803,-2.9857,-2.982,-2.9823,-2.9825,-2.9946,-2.9948,-2.9949,0,0,0,0,0,0,-2.9631,-2.964,-2.9717,-2.9683,-2.9692,-2.9711,-2.9732,-2.9735,-2.9748,-2.977,-2.9773,-2.9753,-2.9791,-2.9799,-2.9839,-2.9858,-2.9824,-2.9827,-2.9944,-2.9947,-2.9948,-2.9963,0,0,0,0,0,0,-2.9628,-2.9639,-2.9656,-2.9683,-2.9694,-2.9751,-2.9733,-2.9737,-2.9754,-2.9753,-2.978,-2.9784,-2.9791,-2.9834,-2.9842,-2.9862,-2.983,-2.9943,-2.9945,-2.9948,-2.9961,-2.9966,-2.997,0,0,0,0,0,-2.9624,-2.9658,-2.9657,-2.9666,-2.9715,-2.9753,-2.9759,-2.9767,-2.9756,-2.9772,-2.9786,-2.9783,-2.9855,-2.9838,-2.9847,-2.9869,-2.9941,-2.9945,-2.9948,-2.9959,-2.9965,-2.9969,0,0,0,0,0,0,-2.9632,-2.9661,-2.966,-2.9704,-2.9726,-2.9752,-2.9773,-2.9773,-2.9798,-2.9796,-2.9805,-2.9811,-2.9851,-2.9864,-2.9844,-2.9913,-2.9897,-2.9902,-2.9903,-2.9908,-2.9912,-2.9907,-2.9832,0,0,0,0,0,-2.9639,-2.9666,-2.9691,-2.9727,-2.9738,-2.9754,-2.977,-2.9775,-2.9798,-2.9807,-2.9824,-2.9846,-2.9874,-2.9892,-2.9919,-2.9964,-2.997,-2.9983,-2.9987,-2.9991,-2.9994,-3.0019,-3.0025,-2.9959,-2.9959,-2.9959,0,0,-2.9652,-2.9672,-2.9689,-2.9729,-2.9746,-2.9775,-2.9761,-2.9792,-2.9813,-2.9812,-2.985,-2.9864,-2.9889,-2.9932,-2.9951,-2.9944,-3.0014,-2.9995,-2.9997,-2.9999,-3.0023,-3.0029,-3.0035,-2.9961,-2.9961,-2.9961,0,0,-2.9692,-2.971,-2.9742,-2.976,-2.9787,-2.9798,-2.9806,-2.9833,-2.9842,-2.9881,-2.988,-2.9906,-2.9954,-2.9972,-2.9988,-3.0037,-3.0034,-3.0045,-3.0066,-3.009,-3.0095,-3.01,-3.0117,-3.0122,-3.0049,-3.0049,-3.0049,0,-2.9706,-2.9749,-2.9759,-2.979,-2.9807,-2.9808,-2.984,-2.9858,-2.9892,-2.9904,-2.9895,-2.9956,-2.9973,-3.002,-3.0032,-3.0045,-3.0054,-3.0041,-3.0094,-3.0099,-3.0103,-3.0119,-3.0125,-3.005,-3.005,-3.005,-3.005,0,-2.9764,-2.9794,-2.9817,-2.985,-2.9871,-2.9902,-2.9917,-2.9936,-2.994,-2.9952,-2.9992,-3.0013,-3.0044,-3.0056,-3.006,-3.0104,-3.0098,-3.0092,-3.0075,-3.011,-3.0125,-3.0132,-3.0052,-3.0052,-3.0051,-3.0051,0,0,-2.9808,-2.9848,-2.9856,-2.9871,-2.9902,-2.9925,-2.9957,-2.9988,-3.0005,-3.0029,-3.0056,-3.0097,-3.0092,-3.011,-3.0116,-3.0137,-3.0174,-3.0128,-3.0129,-3.0135,-3.0223,-3.0226,-3.0233,-3.0173,-3.0174,-3.0175,-3.0221,0,-2.985,-2.9907,-2.9917,-2.9966,-2.9994,-2.9996,-3.0024,-3.0046,-3.0058,-3.0084,-3.0098,-3.0127,-3.0118,-3.0128,-3.015,-3.0165,-3.0191,-3.0162,-3.0197,-3.0198,-3.0189,-3.0241,-3.0245,-3.0286,-3.0227,-3.0228,-3.0228,0,-2.9906,-2.9932,-2.9984,-3.0012,-3.0024,-3.0049,-3.0078,-3.0103,-3.0128,-3.0136,-3.0157,-3.0161,-3.0194,-3.0178,-3.0224,-3.0204,-3.022,-3.0229,-3.0231,-3.0233,-3.0214,-3.0244,-3.03,-3.0305,-3.0238,-3.0237,-3.0237,0,-2.9932,-2.998,-3.0017,-3.0031,-3.0064,-3.0081,-3.0096,-3.0121,-3.0139,-3.0165,-3.0177,-3.0207,-3.0223,-3.0246,-3.0258,-3.0245,-3.0303,-3.0288,-3.031,-3.031,-3.032,-3.0319,-3.0378,-3.0333,-3.0333,-3.0333,-3.0333,0,-2.9977,-3.0008,-3.0029,-3.0052,-3.0087,-3.01,-3.0134,-3.0149,-3.0171,-3.0197,-3.0201,-3.0225,-3.0241,-3.0267,-3.0277,-3.0313,-3.0321,-3.0328,-3.033,-3.0326,-3.0325,-3.0335,-3.0332,-3.0335,-3.0334,-3.0334,-3.0334,0,-3.001,-3.0026,-3.0066,-3.0095,-3.0103,-3.0128,-3.0153,-3.0175,-3.0188,-3.0221,-3.0229,-3.025,-3.0281,-3.0296,-3.0335,-3.0342,-3.0383,-3.0384,-3.0374,-3.0375,-3.0395,-3.0393,-3.0461,-3.0471,-3.0421,-3.0421,-3.0422,0,-3.0037,-3.0061,-3.0093,-3.011,-3.0126,-3.0154,-3.0173,-3.0187,-3.0206,-3.0238,-3.0256,-3.0288,-3.0314,-3.0364,-3.0382,-3.0413,-3.0413,-3.0435,-3.0418,-3.0414,-3.0412,-3.041,-3.0412,-3.0438,-3.0438,-3.0439,-3.0439,0,-3.0082,-3.0089,-3.0116,-3.0146,-3.0169,-3.0193,-3.0217,-3.0231,-3.0249,-3.027,-3.0303,-3.0323,-3.0363,-3.0395,-3.0426,-3.0442,-3.0443,-3.0445,-3.0451,-3.0447,-3.044,-3.0443,-3.0381,-3.0443,-3.0442,-3.0442,-3.0442,-3.0442,-3.0113,-3.0134,-3.016,-3.019,-3.021,-3.0232,-3.0254,-3.0271,-3.0298,-3.0332,-3.0339,-3.0373,-3.0399,-3.0441,-3.0458,-3.0485,-3.048,-3.049,-3.0492,-3.0494,-3.0494,-3.0438,-3.0491,-3.0491,-3.0491,-3.0491,-3.0491,0,-3.0157,-3.0174,-3.0202,-3.0235,-3.0259,-3.026,-3.0287,-3.0306,-3.0336,-3.036,-3.0386,-3.0424,-3.0455,-3.0476,-3.0508,-3.0525,-3.0527,-3.0533,-3.0531,-3.0534,-3.0497,-3.0488,-3.0531,-3.0531,-3.0531,-3.0531,-3.0531,-3.0531,-3.0183,-3.022,-3.023,-3.0276,-3.0293,-3.0327,-3.0342,-3.0363,-3.0382,-3.0424,-3.045,-3.0464,-3.0487,-3.052,-3.0549,-3.0555,-3.0565,-3.0571,-3.0577,-3.0541,-3.0537,-3.0533,-3.0524,-3.0574,-3.0574,-3.0611,-3.0612,-3.0612]},{"header":{"parameterUnit":"m.s-1","parameterCategory":1,"la1":30.2991,"la2":30.254,"lo1":-89.0895,"lo2":-89.0444,"dy":0.0017,"dx":0.0017,"nx":28,"ny":28,"refTime":"2024-04-07T09:00:00:Z","depth":0,"parameterNumber":3,"parameterNumberName":"V-component_of_WINDS"},"data":[0,0,0,0,0,0,0,0,0,0,0,0,0,0,0,0,0,0,0,0,0,0,0,0,0,0,0,0,0,0,0,0,0,0,0,0,0,0,0,0,0,0,0,0,0,0,0,0,0,0,0,0,0,0,0,0,0,0,5.058,5.0581,0,5.0688,5.069,5.0691,5.0672,5.0671,5.0669,5.0667,5.0775,5.078,5.0784,0,0,0,0,0,0,0,0,0,0,0,0,0,5.0354,5.0359,5.058,5.0581,5.0582,5.0688,5.069,5.0691,5.0673,5.067,5.0668,5.0666,5.0774,5.0779,5.0785,0,0,0,0,0,0,0,0,0,0,0,0,0,5.0457,5.036,5.0579,5.0586,5.0588,5.0688,5.069,5.0692,5.0673,5.067,5.0668,5.0665,5.0772,5.0779,5.0786,5.0885,0,0,5.0807,5.081,0,0,0,0,0,0,0,0,5.0451,5.0465,5.0584,5.0586,5.0588,5.0664,5.065,5.0756,5.0674,5.0641,5.0667,5.0664,5.074,5.075,5.0776,5.089,5.0895,5.0808,5.0812,5.0815,5.0817,0,0,0,0,0,0,0,5.0444,5.046,5.0623,5.0585,5.0588,5.0583,5.0594,5.067,5.0705,5.0643,5.0642,5.0656,5.0741,5.077,5.0779,5.0897,5.0807,5.0814,5.0818,5.0821,5.1099,5.1102,0,0,0,0,0,0,5.0435,5.0454,5.0619,5.0626,5.0511,5.0589,5.0602,5.0642,5.0704,5.0711,5.0658,5.0654,5.0759,5.0771,5.0782,5.0904,5.0815,5.0821,5.0825,5.1096,5.11,5.1103,0,0,0,0,0,0,5.043,5.045,5.0615,5.054,5.0561,5.0596,5.0642,5.0646,5.0675,5.0715,5.0721,5.0681,5.0757,5.0773,5.086,5.0908,5.0824,5.0831,5.1092,5.1097,5.1102,5.1148,0,0,0,0,0,0,5.0424,5.0448,5.0487,5.0541,5.0565,5.0692,5.0645,5.065,5.0687,5.0683,5.0738,5.0745,5.0756,5.085,5.0867,5.0916,5.0836,5.1088,5.1094,5.11,5.1142,5.1154,5.1163,0,0,0,0,0,5.0416,5.0495,5.0489,5.0509,5.0614,5.0694,5.0708,5.072,5.0691,5.073,5.0756,5.0743,5.09,5.0859,5.0878,5.093,5.1085,5.1093,5.11,5.1138,5.1151,5.1163,0,0,0,0,0,0,5.0444,5.0502,5.0496,5.0595,5.064,5.0691,5.074,5.0734,5.0788,5.0782,5.0795,5.0807,5.0897,5.0922,5.0876,5.103,5.0988,5.1,5.101,5.1024,5.1034,5.1026,5.0842,0,0,0,0,0,5.0462,5.0523,5.057,5.0653,5.0676,5.0704,5.074,5.0746,5.0793,5.0811,5.0844,5.0889,5.0949,5.0988,5.1045,5.1146,5.1158,5.1191,5.1201,5.121,5.1219,5.1276,5.1291,5.1127,5.1127,5.1127,0,0,5.0499,5.0538,5.0576,5.0659,5.0695,5.0758,5.072,5.0788,5.0835,5.0821,5.0907,5.0932,5.0984,5.1079,5.1122,5.1103,5.1267,5.1219,5.1225,5.1231,5.1285,5.13,5.1314,5.1132,5.1131,5.113,0,0,5.0599,5.0635,5.0708,5.0745,5.08,5.0819,5.0836,5.0889,5.0906,5.0992,5.0984,5.1039,5.1141,5.1178,5.1211,5.1327,5.1317,5.1345,5.14,5.1455,5.1468,5.1479,5.1521,5.1536,5.1354,5.1354,5.1354,0,5.0638,5.0733,5.0746,5.0816,5.0853,5.0845,5.0919,5.0954,5.1024,5.105,5.1027,5.1156,5.119,5.1294,5.1323,5.1349,5.137,5.1338,5.1465,5.1477,5.1488,5.1528,5.1543,5.1357,5.1357,5.1357,5.1356,0,5.0779,5.0845,5.0898,5.0968,5.101,5.1082,5.1105,5.1147,5.115,5.1171,5.1259,5.13,5.1365,5.139,5.1393,5.1496,5.1482,5.1462,5.142,5.1506,5.1544,5.156,5.1362,5.1361,5.136,5.1359,0,0,5.0899,5.0976,5.0995,5.1028,5.1088,5.1139,5.1211,5.1276,5.1312,5.1361,5.1421,5.1508,5.1491,5.1528,5.1534,5.1582,5.1673,5.1556,5.1558,5.1577,5.1789,5.1805,5.1822,5.1666,5.1669,5.1672,5.1785,0,5.1005,5.1132,5.1147,5.126,5.1321,5.1315,5.1377,5.1421,5.1443,5.1498,5.1521,5.1584,5.1555,5.1578,5.1625,5.1652,5.1715,5.1644,5.1723,5.1725,5.171,5.1842,5.1858,5.1963,5.18,5.1803,5.1805,0,5.1146,5.1201,5.1321,5.1374,5.14,5.1456,5.1518,5.1571,5.162,5.1633,5.1675,5.1676,5.1749,5.1705,5.1806,5.1757,5.179,5.1808,5.1812,5.1821,5.177,5.1854,5.1997,5.2013,5.1828,5.1826,5.1824,0,5.1223,5.1326,5.1412,5.1439,5.1503,5.1543,5.1571,5.1618,5.1657,5.1711,5.1736,5.1797,5.1831,5.1878,5.1895,5.1861,5.1996,5.1953,5.2008,5.2008,5.2037,5.2035,5.2188,5.2058,5.2058,5.2057,5.2057,0,5.1341,5.1414,5.1447,5.15,5.1582,5.1598,5.1679,5.1705,5.1747,5.1805,5.1802,5.1856,5.1875,5.1932,5.1946,5.2028,5.2043,5.2055,5.2058,5.2056,5.2055,5.2078,5.2072,5.2062,5.2061,5.206,5.2059,0,5.144,5.1465,5.1558,5.1612,5.1627,5.1686,5.1731,5.1782,5.1803,5.1876,5.1894,5.1927,5.1994,5.2016,5.2097,5.2106,5.2203,5.2199,5.2186,5.2187,5.2242,5.2237,5.2415,5.244,5.2293,5.2294,5.2296,0,5.1514,5.1571,5.1631,5.167,5.17,5.1763,5.1803,5.182,5.1862,5.1924,5.1967,5.2034,5.2088,5.2195,5.2226,5.2288,5.2286,5.2345,5.2295,5.2292,5.2288,5.2285,5.2291,5.2354,5.2355,5.2357,5.2358,0,5.1643,5.1653,5.1711,5.1774,5.1822,5.1873,5.1921,5.1953,5.1978,5.2025,5.2094,5.2136,5.2219,5.2286,5.2349,5.2377,5.2372,5.2373,5.2389,5.2388,5.2379,5.2385,5.2212,5.2369,5.2368,5.2367,5.2366,5.2366,5.1732,5.1783,5.1834,5.1899,5.1938,5.1983,5.2034,5.2063,5.2121,5.2191,5.2197,5.2272,5.2321,5.2406,5.2438,5.2496,5.248,5.2503,5.2509,5.2515,5.252,5.2369,5.2508,5.2507,5.2507,5.2507,5.2507,0,5.1861,5.1894,5.1954,5.2023,5.2074,5.2066,5.2119,5.2163,5.2229,5.2275,5.233,5.2409,5.2474,5.2511,5.2576,5.2616,5.2615,5.2632,5.2629,5.2636,5.253,5.251,5.2632,5.2632,5.2632,5.2632,5.2632,5.2632,5.1934,5.202,5.2036,5.2141,5.2173,5.2247,5.2279,5.2321,5.2358,5.2448,5.2502,5.2526,5.2569,5.2637,5.2696,5.2705,5.273,5.2749,5.2756,5.2656,5.2644,5.2631,5.2613,5.2754,5.2754,5.2858,5.2859,5.2859]}]]